TimeEST,TemperatureF,Dew PointF,Humidity,Sea Level PressureIn,VisibilityMPH,Wind Direction,Wind SpeedMPH,Gust SpeedMPH,PrecipitationIn,Events,Conditions,WindDirDegrees,DateUTC
12:27 AM,48.2,44.6,87,30.11,2.5,ESE,5.8,-,N/A,,Mostly Cloudy,110,2012-12-03 05:27:00
12:53 AM,50.0,46.9,89,30.11,3.0,East,3.5,-,N/A,,Overcast,90,2012-12-03 05:53:00
1:05 AM,48.2,46.4,93,30.11,2.0,Calm,Calm,-,N/A,,Overcast,0,2012-12-03 06:05:00
1:16 AM,48.2,44.6,87,30.11,1.2,Calm,Calm,-,N/A,,Mostly Cloudy,0,2012-12-03 06:16:00
1:29 AM,48.2,44.6,87,30.11,0.5,Calm,Calm,-,N/A,Fog,Fog,0,2012-12-03 06:29:00
1:37 AM,46.4,44.6,93,30.11,0.2,NW,5.8,-,N/A,Fog,Fog,310,2012-12-03 06:37:00
1:48 AM,44.6,42.8,93,30.11,0.5,Calm,Calm,-,N/A,Fog,Fog,0,2012-12-03 06:48:00
1:53 AM,46.9,44.1,90,30.11,0.8,Calm,Calm,-,N/A,,Mist,0,2012-12-03 06:53:00
2:23 AM,42.8,39.2,87,30.12,0.2,Calm,Calm,-,N/A,Fog,Fog,0,2012-12-03 07:23:00
2:44 AM,46.4,44.6,93,30.13,1.0,Calm,Calm,-,N/A,,Overcast,0,2012-12-03 07:44:00
2:53 AM,46.0,43.0,89,30.13,1.8,Calm,Calm,-,N/A,,Overcast,0,2012-12-03 07:53:00
3:14 AM,46.4,44.6,93,30.13,2.5,Calm,Calm,-,N/A,,Overcast,0,2012-12-03 08:14:00
3:19 AM,46.4,44.6,93,30.14,3.0,Calm,Calm,-,N/A,,Overcast,0,2012-12-03 08:19:00
3:30 AM,48.2,44.6,87,30.14,2.5,Calm,Calm,-,N/A,,Overcast,0,2012-12-03 08:30:00
3:53 AM,48.9,45.0,86,30.14,2.5,ENE,3.5,-,N/A,,Overcast,60,2012-12-03 08:53:00
4:44 AM,48.2,44.6,87,30.12,3.0,NE,5.8,-,N/A,,Overcast,50,2012-12-03 09:44:00
4:53 AM,48.9,45.0,86,30.12,3.0,ENE,4.6,-,N/A,,Overcast,60,2012-12-03 09:53:00
5:19 AM,48.2,44.6,87,30.14,3.0,NNE,3.5,-,N/A,,Overcast,30,2012-12-03 10:19:00
5:53 AM,48.9,45.0,86,30.14,3.0,ENE,4.6,-,N/A,,Overcast,60,2012-12-03 10:53:00
6:53 AM,48.9,45.0,86,30.13,3.0,ESE,3.5,-,N/A,,Overcast,120,2012-12-03 11:53:00
7:04 AM,48.2,46.4,93,30.13,3.0,East,3.5,-,N/A,,Overcast,100,2012-12-03 12:04:00
7:13 AM,50.0,46.4,87,30.13,2.5,East,3.5,-,N/A,,Overcast,100,2012-12-03 12:13:00
7:28 AM,50.0,46.4,87,30.13,1.2,Calm,Calm,-,N/A,,Overcast,0,2012-12-03 12:28:00
7:38 AM,50.0,46.4,87,30.13,0.5,ENE,4.6,-,N/A,Fog,Fog,60,2012-12-03 12:38:00
8:04 AM,50.0,46.4,87,30.13,0.2,Calm,Calm,-,N/A,Fog,Fog,0,2012-12-03 13:04:00
8:53 AM,51.1,48.0,89,30.12,0.2,Calm,Calm,-,0.01,Fog,Fog,0,2012-12-03 13:53:00
9:12 AM,51.8,48.2,88,30.12,0.2,Calm,Calm,-,N/A,Fog,Fog,0,2012-12-03 14:12:00
10:53 AM,53.1,50.0,89,30.12,0.2,SE,5.8,-,N/A,Fog,Fog,140,2012-12-03 15:53:00
11:53 AM,55.0,52.0,89,30.08,0.2,SE,8.1,-,N/A,Fog,Fog,140,2012-12-03 16:53:00
12:53 PM,55.9,53.1,90,30.06,0.2,SSE,8.1,-,N/A,Fog,Fog,150,2012-12-03 17:53:00
2:53 PM,57.9,55.0,90,30.01,0.2,SSE,8.1,-,N/A,Fog,Fog,150,2012-12-03 19:53:00
3:06 PM,57.2,55.4,94,30.01,0.5,SSE,8.1,-,N/A,Fog,Fog,150,2012-12-03 20:06:00
3:24 PM,59.0,55.4,88,30.01,1.0,SSE,8.1,-,N/A,,Overcast,160,2012-12-03 20:24:00
3:53 PM,60.1,55.9,86,29.99,1.8,SSE,8.1,-,N/A,,Overcast,150,2012-12-03 20:53:00
4:35 PM,60.8,55.4,82,30.00,1.8,SSE,6.9,-,N/A,,Overcast,160,2012-12-03 21:35:00
4:53 PM,60.1,57.0,90,29.99,2.0,SSE,10.4,-,N/A,,Overcast,160,2012-12-03 21:53:00
5:04 PM,60.8,57.2,88,29.99,3.0,SSE,10.4,-,N/A,,Overcast,160,2012-12-03 22:04:00
5:43 PM,62.6,57.2,82,29.99,4.0,SSE,9.2,-,N/A,,Overcast,160,2012-12-03 22:43:00
5:53 PM,62.1,57.9,86,29.98,4.0,South,8.1,-,N/A,,Overcast,170,2012-12-03 22:53:00
6:40 PM,62.6,57.2,82,29.98,4.0,SSE,9.2,-,N/A,,Haze,160,2012-12-03 23:40:00
6:53 PM,62.1,57.0,84,29.98,4.0,South,10.4,-,N/A,,Haze,170,2012-12-03 23:53:00
7:53 PM,62.1,57.0,84,29.96,7.0,South,12.7,-,N/A,,Scattered Clouds,170,2012-12-04 00:53:00
8:53 PM,61.0,55.9,83,29.96,6.0,South,10.4,-,N/A,,Haze,180,2012-12-04 01:53:00
9:53 PM,61.0,55.0,81,29.94,8.0,South,11.5,-,N/A,,Clear,180,2012-12-04 02:53:00
10:53 PM,64.9,55.0,70,29.93,10.0,SSW,19.6,24.2,N/A,,Mostly Cloudy,200,2012-12-04 03:53:00
11:53 PM,64.9,54.0,68,29.92,10.0,SSW,23.0,38.0,N/A,,Mostly Cloudy,210,2012-12-04 04:53:00